Back to catalog

COSMOS 970 DEB

AliveLEO
NORAD 18998·DEBRIS·🇷🇺 Russia

Launched Dec 21, 1977 from Baikonur Cosmodrome

Loading…

Next Passes (next 24 hours)

TLE

AgingSource: Space-Track

Epoch: Sep 12, 2026, 06:29 UTC

1 18998U 77121BS  26255.27050123  .00000295  00000-0  35743-3 0  9994
2 18998  65.8253 190.6862 0116843  78.0001  72.4295 13.77654285952651

Track COSMOS 970 DEB in real time with AllMySat

Download on the App Store